COSMOS 2392 DEB, 43372

Orbit data source: Space-Track

COSMOS 2392 DEB, 43372 is space debris in LEO originally from a launch on Thu, 25 Jul 2002 UTC launched from the Tyuratam Missile And Space Complex (TTMTR). Debris objects in space refer to the collection of defunct objects orbiting the Earth. Examples of debris include non-operational satellites, rocket bodies, and fragments generated from explosions, collisions, or faulty payload assembly.

Loading next visibility...
Identifier
43372, 2002-037BW
Orbit
LEO
Country
Flag of CISCIS
Related business
Manufacturer
Unknown
Mission
Spacecraft
Bus & Motor
Unknown
Mass
Unknown
Launch date (UTC)
2002-07-25 (24 years ago)
Launch vehicle
Unknown
Launch site
Tyuratam Missile And Space Complex (TTMTR)
Object type
Payload
Rocket body
Debris
Shape & HBR
Unknown shape, 0.1 m
Radar Cross Section
Medium (>0.1 m² and <1 m²)

Expand to show TLE details & history
Last TLE update: 2 days ago

TLE from 2 days ago
0 COSMOS 2392 DEB
1 43372U 02037BW  26171.45586771  .00006926  00000-0  45213-1 0  9990
2 43372  63.4179 227.9726 0405087 331.5717  26.3675 12.30145519415210
Epoch: 2026-06-20T10:56Z
TLE epoch observation values (Epoch: 2026-06-20T10:56:26.970Z)
Latitude
0.00003°
Longitude
155.19°
Altitude
1,265.322 km
Speed
7.352 km/s
True Right ascension
15h 11m 53s
True Declination
0° 00' 00"
Sunlit
Object was in full shadow at epoch
Visualization orbit readout
Latitude
Unknown
Longitude
Unknown
Altitude
Unknown
Speed
Unknown
Apparent Right ascension
Unknown
Apparent Declination
Unknown
Sunlit
N/A
Visualization observer readout
Local Sidereal Time
21:23:41
Azimuth
Unknown
Elevation
Unknown
Doppler factor
Unknown
Orbital elements
Apogee altitude
1,868.608 km
Perigee altitude
1,226.49 km
Semi-major axis
7,925.686 km
Eccentricity
0.04051
Inclination
63.4179°
RAAN
227.9726°
Arg. of periapsis
331.5717°
True anomaly
28.52638°
Mean anomaly
26.3675°
Eccentric anomaly
27.43694°
Mean motion
3.07601 °/min
Orbital period
117.03 mins
BSTAR
0.045213
Loading maneuver chart data...
Computing Atmospheric mass density...

Documentation

Showing up to 5 results
|